IGO728 VIDP-VABB

Flight info

Callsign IGO728
Flight time N/A
Altitude 35000
Route DUDUM6G DUDUM Q2 AKTIV IGBAN2A
Aircraft A320/L-SDE2E3FGHIJ1RWXY/LB1

Departure

Time 2026-04-30 14:19
Airport Indira Gandhi International Airport (VIDP)

Arrival

Time N/A
Airport Chhatrapati Shivaji Maharaj International Airport (VABB)
Time Latitude Longitude Altitude Speed Heading
2026-04-30 13:29 28.55831 77.08886 739 ft 0 kts 274°
2026-04-30 13:58 28.55831 77.08891 711 ft 3 kts 274°
2026-04-30 13:59 28.55828 77.08921 739 ft 3 kts 280°
2026-04-30 13:59 28.55822 77.08951 738 ft 4 kts 293°
2026-04-30 13:59 28.55815 77.08968 739 ft 1 kts 304°
2026-04-30 14:03 28.55818 77.08968 739 ft 0 kts 340°
2026-04-30 14:04 28.55827 77.08975 739 ft 5 kts 29°
2026-04-30 14:04 28.55895 77.08999 740 ft 16 kts
2026-04-30 14:04 28.56034 77.09026 740 ft 24 kts
2026-04-30 14:04 28.56137 77.09045 738 ft 3 kts
2026-04-30 14:05 28.56174 77.09052 740 ft 8 kts
2026-04-30 14:05 28.56192 77.09067 740 ft 0 kts 69°
2026-04-30 14:05 28.56193 77.09068 740 ft 0 kts 55°
2026-04-30 14:05 28.56211 77.09072 740 ft 7 kts 11°
2026-04-30 14:06 28.56236 77.09069 740 ft 0 kts 357°
2026-04-30 14:07 28.56286 77.09080 739 ft 13 kts 11°
2026-04-30 14:07 28.56402 77.09097 740 ft 20 kts 355°
2026-04-30 14:07 28.56481 77.09082 740 ft 0 kts 350°
2026-04-30 14:08 28.56516 77.09077 740 ft 7 kts 351°
2026-04-30 14:08 28.56582 77.09065 739 ft 12 kts 348°
2026-04-30 14:08 28.56799 77.09012 735 ft 21 kts 349°
2026-04-30 14:09 28.56941 77.08985 731 ft 11 kts 351°
2026-04-30 14:09 28.56955 77.08982 731 ft 0 kts 351°
2026-04-30 14:09 28.56988 77.08969 730 ft 11 kts 343°
2026-04-30 14:10 28.57060 77.08881 729 ft 17 kts 262°
2026-04-30 14:10 28.56965 77.08768 728 ft 25 kts 220°
2026-04-30 14:10 28.56893 77.08693 728 ft 1 kts 213°
2026-04-30 14:10 28.56892 77.08693 728 ft 0 kts 206°
2026-04-30 14:11 28.56891 77.08694 714 ft 1 kts 188°
2026-04-30 14:11 28.56888 77.08699 712 ft 1 kts 136°
2026-04-30 14:11 28.56887 77.08715 715 ft 6 kts 102°
2026-04-30 14:11 28.56876 77.08796 730 ft 15 kts 99°
2026-04-30 14:12 28.56859 77.08937 732 ft 18 kts 95°
2026-04-30 14:12 28.56825 77.09079 735 ft 19 kts 96°
2026-04-30 14:12 28.56821 77.09233 737 ft 20 kts 92°
2026-04-30 14:12 28.56817 77.09394 738 ft 21 kts 92°
2026-04-30 14:13 28.56814 77.09562 740 ft 21 kts 90°
2026-04-30 14:13 28.56811 77.09699 739 ft 16 kts 92°
2026-04-30 14:13 28.56808 77.09827 743 ft 17 kts 92°
2026-04-30 14:13 28.56803 77.09968 744 ft 18 kts 90°
2026-04-30 14:14 28.56802 77.10116 744 ft 19 kts 91°
2026-04-30 14:14 28.56797 77.10279 744 ft 23 kts 91°
2026-04-30 14:14 28.56792 77.10480 747 ft 28 kts 92°
2026-04-30 14:14 28.56787 77.10721 753 ft 32 kts 93°
2026-04-30 14:15 28.56800 77.10968 755 ft 30 kts 98°
2026-04-30 14:15 28.56782 77.11137 756 ft 9 kts 77°
2026-04-30 14:15 28.56797 77.11167 753 ft 2 kts 51°
2026-04-30 14:15 28.56815 77.11194 758 ft 6 kts 53°
2026-04-30 14:16 28.56843 77.11250 757 ft 10 kts 69°
2026-04-30 14:16 28.56849 77.11336 757 ft 12 kts 91°
2026-04-30 14:16 28.56847 77.11442 757 ft 14 kts 92°
2026-04-30 14:16 28.56843 77.11561 762 ft 16 kts 92°
2026-04-30 14:17 28.56869 77.11653 763 ft 8 kts 15°
2026-04-30 14:17 28.56931 77.11640 763 ft 12 kts 349°
2026-04-30 14:17 28.56999 77.11601 762 ft 4 kts 274°
2026-04-30 14:17 28.56997 77.11562 762 ft 7 kts 267°
2026-04-30 14:18 28.56996 77.11488 762 ft 12 kts 271°
2026-04-30 14:18 28.56997 77.11444 761 ft 0 kts 270°
2026-04-30 14:18 28.56997 77.11441 761 ft 3 kts 270°
2026-04-30 14:19 28.57032 77.09940 743 ft 176 kts 271°
2026-04-30 14:19 28.57063 77.08459 1414 ft 176 kts 270°
2026-04-30 14:19 28.57030 77.07138 2733 ft 157 kts 248°
2026-04-30 14:20 28.56454 77.06265 3783 ft 135 kts 207°
2026-04-30 14:20 28.55592 77.05863 4565 ft 136 kts 195°
2026-04-30 14:20 28.53386 77.06354 5131 ft 213 kts 138°
2026-04-30 14:21 28.52567 77.07789 5997 ft 222 kts 100°
2026-04-30 14:21 28.52348 77.09477 7275 ft 210 kts 93°
2026-04-30 14:21 28.51545 77.12663 9035 ft 233 kts 139°
2026-04-30 14:22 28.50076 77.13504 9689 ft 244 kts 176°
2026-04-30 14:22 28.46738 77.13157 11391 ft 257 kts 194°
2026-04-30 14:22 28.44845 77.12726 11375 ft 302 kts 197°
2026-04-30 14:23 28.40078 77.11460 10663 ft 397 kts 196°
2026-04-30 14:23 28.34197 77.09930 10616 ft 443 kts 195°
2026-04-30 14:24 28.28309 77.08418 12685 ft 435 kts 200°
2026-04-30 14:24 28.25939 77.06781 14776 ft 367 kts 232°
2026-04-30 14:25 28.23539 77.02486 18974 ft 302 kts 247°
2026-04-30 14:25 28.21222 76.98159 19325 ft 358 kts 236°
2026-04-30 14:26 28.17475 76.93561 18624 ft 434 kts 228°
2026-04-30 14:26 28.15239 76.91092 18289 ft 464 kts 227°
2026-04-30 14:26 28.10477 76.85915 19526 ft 466 kts 227°
2026-04-30 14:27 28.08141 76.83384 20394 ft 465 kts 226°
2026-04-30 14:27 28.05774 76.80883 21018 ft 459 kts 226°
2026-04-30 14:27 28.03517 76.78577 21845 ft 412 kts 224°
2026-04-30 14:28 27.99676 76.74985 24133 ft 302 kts 227°
2026-04-30 14:28 27.98213 76.73505 25113 ft 267 kts 227°
2026-04-30 14:28 27.96801 76.72119 25202 ft 273 kts 227°
2026-04-30 14:28 27.95358 76.70715 25208 ft 273 kts 227°
2026-04-30 14:29 27.92520 76.67871 24848 ft 268 kts 237°